This is the latest recevied weather packets stored in our database for station/object EA7AIS-10. If no packets are shown the sender has not sent any weather packets the latest 10 day(s).
| Time | Temp. | Humidity | Pressure | Rain* | Wind** | Luminosity | Snow |
|---|---|---|---|---|---|---|---|
| 1777329041 | 17.22° C | 89% | 1010.7 hPa | - | - | - | - |
| 1777328141 | 17.22° C | 91% | 1010.9 hPa | - | - | - | - |
| 1777327240 | 17.22° C | 91% | 1011 hPa | - | - | - | - |
| 1777326340 | 17.22° C | 90% | 1010.9 hPa | - | - | - | - |
| 1777325440 | 17.22° C | 90% | 1010.8 hPa | - | - | - | - |
| 1777324541 | 17.22° C | 90% | 1010.9 hPa | - | - | - | - |
| 1777323640 | 17.22° C | 92% | 1010.9 hPa | - | - | - | - |
| 1777322740 | 17.22° C | 86% | 1010.7 hPa | - | - | - | - |
| 1777321840 | 17.22° C | 86% | 1010.8 hPa | - | - | - | - |
| 1777320940 | 17.22° C | 87% | 1010.8 hPa | - | - | - | - |
| 1777320040 | 17.22° C | 86% | 1010.6 hPa | - | - | - | - |
| 1777319140 | 17.22° C | 88% | 1010.7 hPa | - | - | - | - |
| 1777318240 | 17.22° C | 89% | 1010.5 hPa | - | - | - | - |
| 1777317340 | 17.22° C | 89% | 1010.4 hPa | - | - | - | - |
| 1777316440 | 17.22° C | 89% | 1010.4 hPa | - | - | - | - |
| 1777315540 | 17.22° C | 90% | 1010.4 hPa | - | - | - | - |
| 1777314640 | 17.22° C | 88% | 1010.5 hPa | - | - | - | - |
| 1777313740 | 17.78° C | 90% | 1010.4 hPa | - | - | - | - |
| 1777312839 | 17.78° C | 88% | 1010.6 hPa | - | - | - | - |
| 1777311939 | 17.22° C | 91% | 1011.1 hPa | - | - | - | - |
| 1777311039 | 17.22° C | 90% | 1011 hPa | - | - | - | - |
| 1777310139 | 17.78° C | 89% | 1011 hPa | - | - | - | - |
| 1777309239 | 17.78° C | 86% | 1011 hPa | - | - | - | - |
| 1777308339 | 17.78° C | 85% | 1010.9 hPa | - | - | - | - |
| 1777307439 | 17.78° C | 85% | 1010.9 hPa | - | - | - | - |
* Rain since midnight (hover to see other rain measurements)
** Current wind speed in m/s (hover to see current wind gust speed)